This demonstration page uses our WeatherBlox Daily Observations layout. Learn more.

Left ArrowRight Arrow

40.97296, -117.73568

Hourly Observations for October 2, 2022

Temp ( °F °C ) Dew Point ( °F °C ) Humidity (%) Winds ( mph kmh ) Pressure ( in mb ) Visibility ( mi km ) Precip ( " mm )
12:56 am 00:56 Clear 41 5 25 -3.9 52 52 S 3 6 29.98 1015 10 16 0.00 0.00
1:56 am 01:56 Clear 39 3.9 24 -4.4 55 55 Calm 29.97 1015 10 16 0.00 0.00
2:56 am 02:56 Clear 36 2.2 23 -5 59 59 SSE 8 13 29.99 1016 10 16 0.00 0.00
3:56 am 03:56 Clear 35 1.7 23 -5 61 61 SSE 8 13 29.99 1016 10 16 0.00 0.00
4:56 am 04:56 Clear 35 1.7 23 -5 61 61 Calm 30.00 1016 10 16 0.00 0.00
5:56 am 05:56 Clear 36 2.2 24 -4.4 62 62 Calm 30.01 1016 10 16 0.00 0.00
6:56 am 06:56 Sunny 33 0.6 22 -5.6 63 63 Calm 30.05 1018 10 16 0.00 0.00
7:56 am 07:56 Sunny 40 4.4 26 -3.3 57 57 Calm 30.07 1018 10 16 0.00 0.00
8:56 am 08:56 Sunny 52 11.1 31 -0.6 44 44 Calm 30.07 1018 10 16 0.00 0.00
9:56 am 09:56 Sunny 62 16.7 34 1.1 35 35 NE 7 11 30.05 1018 10 16 0.00 0.00
10:56 am 10:56 Sunny 66 18.9 33 0.6 29 29 E 3 6 30.06 1018 10 16 0.00 0.00
11:56 am 11:56 Sunny 72 22.2 32 0 23 23 NNE 5 7 30.03 1017 10 16 0.00 0.00
12:56 pm 12:56 Sunny 75 23.9 33 0.6 22 22 VRB 3 6 30.01 1016 10 16 0.00 0.00
1:56 pm 13:56 Sunny 77 25 33 0.6 20 20 undefined N/A 30.01 1016 10 16 0.00 0.00
2:56 pm 14:56 Sunny 77 25 33 0.6 20 20 VRB 3 6 30.00 1016 10 16 0.00 0.00
3:56 pm 15:56 Sunny 77 25 31 -0.6 18 18 W 8 13 30.00 1016 10 16 0.00 0.00
4:56 pm 16:56 Sunny 77 25 31 -0.6 18 18 NW 9 15 30.00 1016 10 16 0.00 0.00
5:56 pm 17:56 Sunny 75 23.9 31 -0.6 20 20 NNW 6 9 30.00 1016 10 16 0.00 0.00
6:56 pm 18:56 Clear 67 19.4 30 -1.1 25 25 NE 3 6 30.04 1017 10 16 0.00 0.00
7:56 pm 19:56 Clear 59 15 29 -1.7 32 32 Calm 30.05 1018 10 16 0.00 0.00
8:56 pm 20:56 Clear 52 11.1 27 -2.8 38 38 WSW 5 7 30.05 1018 10 16 0.00 0.00
9:56 pm 21:56 Clear 48 8.9 26 -3.3 42 42 Calm 30.05 1018 10 16 0.00 0.00
10:56 pm 22:56 Clear 48 8.9 27 -2.8 44 44 ESE 6 9 30.06 1018 10 16 0.00 0.00
11:56 pm 23:56 Clear 42 5.6 23 -5 46 46 WNW 5 7 30.07 1018 10 16 0.00 0.00

Powered by AerisWeather